{"data":{"norad_id":57853,"intl_designator":"2023-141P","name":"STARLINK-30404","alt_names":[],"object_type":"PAYLOAD","status":"ACTIVE","operator":null,"country":"US","launch_date":"2023-09-12","launch_site_code":"AFWTR","launch_vehicle":null,"mission":null,"orbit_class":"UNKNOWN","rcs_meters":null,"size_class":null,"mass_kg":null,"dimensions":null,"purposes":["comms"],"wikipedia_slug":null,"has_3d_model":false,"image_url":null,"decayed_at":null,"tle_current":{"epoch":"2026-09-19T23:54:33.576480Z","epoch_age_seconds":178174,"freshness":"STALE","line1":"1 57853U 23141P   26262.99622195  .00001464  00000+0  54475-4 0  9993","line2":"2 57853  53.1595  99.7132 0000910 100.1114 259.9991 15.34387776170101","mean_motion":15.34387776,"eccentricity":9.1e-5,"inclination_deg":53.1595,"raan_deg":99.7132,"arg_perigee_deg":100.1114,"mean_anomaly_deg":259.9991,"bstar":5.4475e-5,"rev_number":17010,"period_min":93.848505737835,"perigee_km":462.11705298428,"apogee_km":463.36209252052,"semimajor_km":6840.8765727524,"source":"CELESTRAK","updated_at":"2026-09-21T09:00:33.713775Z"}}}